Location: Oberkirch
(48.5323°N, 8.0787°E)
Time: 06:03:55
(UTC+00:00)

Gbstr 26 Del rocket - Pass Details

Date: 08 November 2025
Orbit: 489 x 1219 km, 51.8° (Epoch: 10 December)

Event Time Altitude Azimuth Distance (km) Brightness Sun altitude
Exits shadow 05:41:11 - 265° (W) 2,424 5.5 -7.6°
Reaches altitude 10° 05:41:44 10° 266° (W) 2,220 5.3 -7.5°
Maximum altitude 05:46:55 69° 350° (N) 899 3.8 -6.7°
Drops below altitude 10° 05:53:22 10° 74° (ENE) 2,739 7.3 -5.7°
Sets 05:56:17 0° 76° (ENE) 3,803 8.2 -5.2°
